Regional Weather Roundup
Issued by NWS

Home | Current Version | Previous Version | Text Only | Print | Product List | Glossary Off
Versions: 1 2 3 4 5 6 7 8 9 10 11 12 13 14 15 16 17 18 19 20 21 22 23 24 25 26 27 28 29 30 31 32 33 34 35 36 37 38 39 40 41 42 43 44 45 46 47 48 49 50

000
ASUS43 KDMX 302308
RWRIA

WEATHER ROUNDUP FOR IOWA
NATIONAL WEATHER SERVICE DES MOINES IA
600 PM CDT SAT APR 30 2016

NOTE: "FAIR" INDICATES FEW OR NO CLOUDS BELOW 12,000 FEET WITH NO
SIGNIFICANT WEATHER AND/OR OBSTRUCTIONS TO VISIBILITY.

* - THESE STATIONS ARE NOT NWS STATIONS...THUS NOT UNDER NWS
QUALITY CONTROL.  THEY ALSO DO NOT REPORT WEATHER SUCH
AS PRECIPITATION OR FOG.

IAZ001>003-012>014-020>022-031>034-043>046-010000-
   NORTHWEST IOWA

CITY           SKY/WX    TMP DP  RH WIND       PRES   REMARKS
CARROLL *      CLOUDY    48  46  93 E23G29    29.85R
CHEROKEE *     CLOUDY    45  43  93 NE21G29   29.90R
DENISON *      CLOUDY    46  46 100 E17G26    29.82R FOG
LE MARS *      CLOUDY    45  43  93 NE20G30   29.91R
ORANGE CITY *  CLOUDY    45  43  93 E15G26    29.91R
SHELDON *      CLOUDY    45  43  93 E24G33    29.91R
SIOUX CITY     CLOUDY    48  43  82 E18G26    29.86R
SPENCER        CLOUDY    44  40  85 E32G40    29.94R FOG
STORM LAKE *   CLOUDY    45  43  93 E25G39    29.88R FOG
$$

IAZ055>058-069>071-079>083-090>094-010000-
   SOUTHWEST IOWA

CITY           SKY/WX    TMP DP  RH WIND       PRES   REMARKS
ATLANTIC *     CLOUDY    50  48  93 E12G17    29.80R FOG
AUDUBON *      LGT RAIN  48  46  93 E13       29.83R
CLARINDA *       N/A    N/A N/A N/A MISG        N/A
COUNCIL BLFS * CLOUDY    48  48 100 E10G16    29.78S FOG
CRESTON *      CLOUDY    50  50 100 E16       29.80R FOG
HARLAN  *      PTSUNNY   48  48 100 E15G22    29.84R FOG
LAMONI         CLOUDY    56  53  90 NE10      29.77R
RED OAK *      CLOUDY    52  50  93 NE14      29.78R
SHENANDOAH *   CLOUDY    55  55 100 NE10      29.77R
$$

IAZ047>049-059>061-072>074-084-010000-
   CENTRAL IOWA

CITY           SKY/WX    TMP DP  RH WIND       PRES   REMARKS
AMES           CLOUDY    48  48 100 E17G29    29.86R
ANKENY *       CLOUDY    48  48 100 E13       29.84R FOG
BOONE *        CLOUDY    48  46  93 E28G38    29.85R
CHARITON *     CLOUDY    52  50  93 NE16G22   29.79S FOG
DES MOINES     DRIZZLE   50  47  89 E16       29.82R FOG
GRINNELL*      CLOUDY    46  46 100 NE25      29.84R FOG
KNOXVILLE *    FOG       50  48  93 E15       29.81R VSB 1
MARSHALLTOWN   CLOUDY    47  44  90 E24G38    29.86R
NEWTON *       CLOUDY    48  48 100 E16G29    29.83R
PELLA *        DRIZZLE   48  48 100 E13G22    29.84R
$$

IAZ004>006-015-016-023>025-035-036-010000-
   NORTH CENTRAL IOWA

CITY           SKY/WX    TMP DP  RH WIND       PRES   REMARKS
ALGONA *       DRIZZLE   45  43  93 NE20G25   29.95R
CLARION *      CLOUDY    46  45  93 E22       29.91R FOG
ESTHERVILLE    CLOUDY    43  40  89 NE29G37   29.95R
FORT DODGE *   CLOUDY    46  39  76 E16G23    29.90R
MASON CITY     CLOUDY    45  41  86 E25G36    29.95R
FOREST CITY *  CLOUDY    45  41  87 NE20G29   29.95R
WEBSTER CITY * CLOUDY    48  45  87 E24G32    29.87R
IOWA FALLS *   CLOUDY    48  45  87 E17G28    29.91R
$$

IAZ007>011-017>019-026>030-037>042-050>054-066-010000-
   NORTHEAST IOWA

CITY           SKY/WX    TMP DP  RH WIND       PRES   REMARKS
CEDAR RAPIDS   CLOUDY    47  47 100 E22G36    29.86R FOG
CHARLES CITY * CLOUDY    46  45  93 NE26G37   29.94R
CLINTON *      LGT RAIN  46  44  93 NE16      29.91R FOG
DECORAH *      LGT RAIN  45  45 100 NE20      29.96F
DUBUQUE        LGT RAIN  44  42  93 NE20      29.92R FOG
MONTICELLO *   PTSUNNY   46  45  93 NE13G28   29.90R FOG
OELWEIN *      PTSUNNY   45  45 100 NE23G32   29.92R FOG
WATERLOO       CLOUDY    46  43  89 NE21G30   29.91R FOG
$$

IAZ064-065-067-068-078-010000-
   EAST CENTRAL IOWA

CITY           SKY/WX    TMP DP  RH WIND       PRES   REMARKS
DAVENPORT      LGT RAIN  46  44  93 E16       29.87S FOG
IOWA CITY      CLOUDY    47  46  97 NE13      29.87R FOG
MT. PLEASANT * CLOUDY    55  55 100 NE12G20   29.80R FOG
MUSCATINE *    PTSUNNY   48  46  93 NE15G24   29.85R FOG
QUAD CITIES    CLOUDY    48  45  89 NE13      29.86R FOG
$$

IAZ062-063-075>077-085>089-095>099-010000-
   SOUTHEAST IOWA

CITY           SKY/WX    TMP DP  RH WIND       PRES   REMARKS
BURLINGTON     CLOUDY    56  56 100 NE15      29.77R
FAIRFIELD *    CLOUDY    50  50 100 NE16G23   29.81R FOG
FORT MADISON * CLOUDY    57  57 100 NE8       29.78R FOG
KEOKUK *       RAIN      63  61  94 NE7       29.76R
OSKALOOSA *    CLOUDY    48  48 100 NE17      29.82R FOG
OTTUMWA        CLOUDY    50  48  93 NE15      29.81R
WASHINGTON *   CLOUDY    48  48 100 NE21G28   29.83R FOG
$$

ABBREVIATIONS USED IN REMARKS
   TC - TEMPERATURES IN CELSIUS
  WCI - WIND CHILL INDEX
   HX - HEAT INDEX
  VSB - VISIBILITY
$$




USA.gov is the U.S. government's official web portal to all federal, state and local government web resources and services.